www.pogodaiklimat.ru

Погода и климат >> Архив погоды >> Оман >> Умзамайм


ПОГОДА в Умзамайме

  • Прогноз погоды в Умзамайме
  • Монитор погоды в Умзамайме

АРХИВ ПОГОДЫ в Умзамайме

Время (UTC), дата Ветер
(напр.,м/с)
 
Видим.   Явления Облачность Т
(С)
Тd
(С)
f
(%)
Тe
(С)
Тes
(С)
Комфортность P
(гПа)
Po
(гПа)
Тmin
(С)
Tmax
(С)
R
(мм)
R24
(мм)
S
(см)
12 15.05 ЮЗ 6 н/о н/о +42.0 +0.4 8 +38 +38 очень
жарко
1002.9 989.3
15 15.05 З 4 н/о н/о +39.5 +2.2 10 +36 +36 очень
жарко
1003.1 989.4
18 15.05 Ю 8 н/о н/о +34.8 +14.1 29 +36 +36 душно 1004.8 990.9 +43.1
21 15.05 Ю 7 н/о н/о +31.9 +15.9 38 +35 +35 очень
душно
1004.6 990.6
00 16.05 ЮЗ 4 н/о н/о +28.1 +10.7 34 +29 +29 жарко 1005.1 990.9
03 16.05 ЮЗ 6 н/о н/о +28.5 +13.7 40 +30 +30 жарко 1006.9 992.6
06 16.05 ЮЗ 5 н/о н/о +38.8 +4.9 12 +36 +36 очень
жарко
1007.2 993.3 +26.9
09 16.05 ЮЗ 5 н/о н/о +42.0 +2.9 9 +39 +39 очень
жарко
1005.3 991.6
12 16.05 ЮЗ 6 н/о н/о +41.9 +4.7 10 +39 +39 очень
жарко
1003.3 989.7
15 16.05 ЮЗ 6 н/о н/о +39.8 +5.8 13 +37 +37 очень
жарко
1003.5 989.8
18 16.05 Ю 8 н/о н/о +32.8 +21.1 50 +40 +40 очень
душно
1005.6 991.6 +43.0
21 16.05 Ю 8 н/о н/о +29.3 +23.3 70 +40 +40 очень
душно
1005.6 991.5
00 17.05 ЮЗ 5 н/о н/о +27.5 +23.1 77 +37 +37 очень
душно
1006.4 992.2
03 17.05 Ю 8 н/о н/о +26.8 +25.1 90 +39 +39 очень
душно
1007.6 993.4
06 17.05 Ю 9 н/о н/о +34.9 +20.3 43 +41 +41 опасность
перегрева
1007.9 994.0 +25.9
09 17.05 Ю 8 н/о н/о +40.4 +15.2 23 +42 +42 опасность
перегрева
1005.9 992.2
12 17.05 ЮЗ 7 н/о н/о +41.6 +7.2 13 +39 +39 очень
жарко
1003.4 989.8
15 17.05 Ю 6 н/о н/о +39.5 +7.9 15 +37 +37 очень
жарко
1003.5 989.8
18 17.05 Ю 9 н/о н/о +30.9 +24.4 68 +43 +43 опасность
перегрева
1005.7 991.6 +42.6
21 17.05 Ю 9 н/о н/о +27.7 +25.5 88 +41 +41 опасность
перегрева
1005.1 990.9
00 18.05 ЮЗ 5 н/о н/о +26.6 +25.6 94 +39 +39 очень
душно
1007.0 992.8
03 18.05 Ю 6 н/о н/о +26.8 +25.3 92 +39 +39 очень
душно
1007.7 993.4
06 18.05 Ю 9 н/о н/о +35.8 +20.8 42 +43 +43 опасность
перегрева
1007.5 993.6 +26.0
09 18.05 ЮЗ 9 н/о н/о +40.6 +15.8 24 +42 +42 опасность
перегрева
1005.7 992.0
12 18.05 ЮЗ 9 н/о н/о +40.7 +13.1 20 +41 +41 опасность
перегрева
1003.2 989.5
15 18.05 Ю 7 н/о н/о +38.6 +13.0 22 +39 +39 душно 1004.3 990.5
18 18.05 Ю 10 н/о н/о +30.1 +25.4 76 +44 +44 опасность
перегрева
1007.5 993.4 +42.1
21 18.05 Ю 7 н/о н/о +29.7 +24.9 75 +42 +42 опасность
перегрева
1007.5 993.4
00 19.05 ЮВ 6 н/о н/о +28.6 +25.1 81 +41 +41 опасность
перегрева
1007.3 993.1
03 19.05 ЮВ 6 н/о н/о +28.4 +25.2 83 +41 +41 опасность
перегрева
1008.6 994.4
06 19.05 Ю 7 н/о н/о +32.0 +24.0 63 +44 +44 опасность
перегрева
1009.5 995.4 +28.2
09 19.05 ЮЗ 4 н/о н/о +37.8 +19.4 34 +43 +43 опасность
перегрева
1007.8 993.9
12 19.05 ЮЗ 5 н/о н/о +39.3 +16.5 26 +41 +41 опасность
перегрева
1004.4 990.7
15 19.05 В 12 н/о н/о +30.2 +23.4 67 +41 +41 опасность
перегрева
1007.3 993.2
18 19.05 ЮВ 9 н/о н/о +30.4 +22.1 61 +39 +39 очень
душно
1009.1 994.9 +39.6
21 19.05 Ю 7 н/о н/о +28.5 +25.9 86 +43 +43 опасность
перегрева
1009.2 994.9
00 20.05 ЮВ 4 н/о н/о +27.3 +25.7 91 +40 +40 очень
душно
1009.3 995.0
03 20.05 ЮВ 6 н/о н/о +27.6 +25.7 89 +41 +41 опасность
перегрева
1010.2 995.9
06 20.05 Ю 5 н/о н/о +32.8 +23.0 56 +43 +43 опасность
перегрева
1010.7 996.6 +26.7
09 20.05 ЮЗ 3 н/о н/о +38.5 +15.1 25 +40 +40 очень
душно
1008.6 994.8
12 20.05 ЮЗ 4 н/о н/о +38.6 +16.4 27 +41 +41 опасность
перегрева
1006.3 992.5
15 20.05 Ю 6 н/о н/о +38.0 +15.6 27 +40 +40 очень
душно
1005.9 992.1
18 20.05 Ю 10 н/о н/о +31.1 +21.1 55 +39 +39 очень
душно
1008.6 994.4 +39.7
21 20.05 Ю 8 н/о н/о +28.5 +22.6 70 +37 +37 очень
душно
1008.8 994.6
00 21.05 ЮВ 3 н/о н/о +27.9 +24.5 82 +39 +39 очень
душно
1010.5 996.2
03 21.05 Ю 4 н/о н/о +28.0 +25.0 84 +40 +40 очень
душно
1011.4 997.1
06 21.05 Ю 3 н/о н/о +32.2 +23.6 61 +44 +44 опасность
перегрева
1011.8 997.7 +27.3
09 21.05 ЮВ 3 н/о н/о +38.1 +19.5 34 +43 +43 опасность
перегрева
1009.5 995.6
12 21.05 ЮЗ 4 н/о н/о +40.1 +15.4 24 +42 +42 опасность
перегрева
1006.9 993.2
15 21.05 С 9 н/о н/о +33.7 +16.4 36 +37 +37 очень
душно
1008.6 994.6
18 21.05 С 2 н/о н/о +33.1 +16.1 36 +36 +36 очень
душно
1011.2 997.1 +40.4
21 21.05 СЗ 5 н/о н/о +30.3 +21.2 58 +38 +38 очень
душно
1009.5 995.4
00 22.05 З 4 н/о н/о +28.9 +17.7 51 +33 +33 очень
душно
1009.2 994.9
03 22.05 С 3 н/о н/о +29.3 +17.9 50 +34 +34 очень
душно
1010.1 995.9
06 22.05 СЗ 6 н/о н/о +35.4 +15.4 30 +37 +37 очень
душно
1010.6 996.7 +27.9
09 22.05 З 5 н/о н/о +38.3 +13.6 23 +39 +39 очень
душно
1008.7 994.9

 

Местоположение метеостанции Умзамайм (Оман): широта 20.80 долгота 57.12 высота над уровнем моря 126 м.

В архиве по умолчанию представлена погода в Умзамайме за последнюю неделю. Архивные данные за месяц целиком и за предыдущие месяцы, начиная с января 2011 года, Вы можете получить, выбрав интересующий диапазон дат из раскрывающегося списка и нажав кнопку "Ввод!".


*Определитесь, кто Вы:
робот инопланетянин человек

Внимание! Время в таблицах - всемирное. Для получения местного времени необходимо прибавить поправку, которая равна 4 ч.

Смотрите также архив погоды в соседних городах и на ближайших метеорологических станциях:

Погода в Карн Аль Алам (Оман) (64 км)
Погода в Ялони (Оман) (96 км)
Погода на Джобе (Оман) (118 км)
Погода в Эль-Дакуме (Оман) (142 км)
Погода в Адаме (Оман) (181 км)
Погода в Фахуде (Оман) (183 км)
Погода на Масире (Оман) (186 км)
Погода в Аль Мудайби (Оман) (217 км)
Погода в Назве (Оман) (232 км)
Погода в Бахле (Оман) (243 км)

Пояснения к столбцам:

Ветер - указаны скорость ветра в м/с - средняя за 10 мин, порывы в срок и между сроками (в фигурных скобках) и направление, откуда дует ветер: С - северный, СВ - северо-восточный, В - восточный, ЮВ - юго-восточный, Ю - южный, ЮЗ - юго-западный, З - западный, СЗ - северо-западный.
Видимость - горизонтальная дальность видимости в метрах или километрах. При видимости от 1 до 10 км при отсутствии осадков обычно наблюдается дымка, при ухудшении видимости до 1 км и менее - туман. В сухую погоду видимость может ухудшаться дымом, пылью или мглою.
Явления - указаны атмосферные явления, наблюдавшиеся в срок или в последний час перед сроком; фигурными скобками обозначены явления, наблюдавшиеся между сроками (за 1-3 часа до срока); квадратными скобками обозначены град или гололедные отложения с указанием их диаметра в мм.
Облачность - указаны через наклонную черту общая и нижняя облачность в баллах и высота нижней границы облаков в метрах; квадратными скобками обозначены формы облаков: Ci - перистые, Cs - перисто-слоистые, Cc - перисто-кучевые, Ac - высококучевые, As - высокослоистые, Sc - слоисто-кучевые, Ns - слоисто-дождевые, Cu - кучевые, Cb - кучево-дождевые. Подробнее классификацию облаков см. в Атласе облаков (PDF).
T - Температура воздуха - температура, измеренная на высоте 2 м над землей.
Td - Температура точки росы - температура, при понижении до которой содержащийся в воздухе водяной пар достигнет насыщения.
f - Относительная влажность воздуха - влажноcть воздуха, измеренная на высоте 2 м над землей.
Te - Эффективная температура - температура, которую ощущает одетый по сезону человек в тени. Характеристика душности погоды. При расчете учитывается влияние влажности воздуха и скорости ветра на теплоощущения человека.
Tes - Эффективная температура на солнце - температура, которую ощущает человек, с поправкой на солнечный нагрев. Характеристика знойности погоды. Зависит от высоты солнца над горизонтом, облачности и скорости ветра. Ночью, в пасмурную погоду, а также при ветре 12 м/с и более поправка равна нулю.
P - Атмосферное давление - приведенное к уровню моря атмосферное давление.
Po - Атмосферное давление - измеренное на уровне метеостанции атмосферное давление.
Tmin - Минимальная температура - минимум температуры воздуха на высоте 2 м над землей.
Tmax - Максимальная температура - максимум температуры воздуха на высоте 2 м над землей.
R - Количество осадков - Количество выпавших осадков за период времени, мм. При наведении курсора мыши на число - период времени, за который выпало указанное количество осадков.
R24 - Количество осадков - Количество выпавших осадков за 24 часа, мм.
S - Снежный покров - Высота снежного покрова, см. При наведении курсора мыши на число - состояние снежного покрова и степень покрытия местности в баллах.